Newcastle, WY

2:46 PM MDT on October 13, 2019 (GMT -0600)
Mondell

Weather History for KECS - September, 2019

Change the Weather History Date:

Saturday, September 21, 2019

  Actual Average (WUND) Record (WUND)
Temperature  
Mean Temperature 51 °F -  
Max Temperature 60 °F - - (-1)
Min Temperature 41 °F - - (-1)
Degree Days  
Heating Degree Days 14    
Growing Degree Days 1 (Base 50)    
Moisture  
Dew Point 41 °F    
Average Humidity 71    
Maximum Humidity 100    
Minimum Humidity 42    
Precipitation  
Precipitation 0.00 in - - ()
Sea Level Pressure  
Sea Level Pressure 29.98 in    
Wind  
Wind Speed 10 mph (NW)    
Max Wind Speed 23 mph    
Max Gust Speed 34 mph    
Visibility 10 miles    
Events      
Averages and records for this station are not official NWS values.
T = Trace of Precipitation, MM = Missing Value Source: NWS Daily Summary

Daily Weather History Graph

Daily Weather History Graph

Search for Another Location

Airport or City:

Astronomy

Sep. 21, 2019 Rise Set
Actual Time 6:43 AM MDT 6:56 PM MDT
Civil Twilight 6:14 AM MDT 7:25 PM MDT
Nautical Twilight 5:40 AM MDT 7:59 PM MDT
Astronomical Twilight 5:05 AM MDT 8:33 PM MDT
Moon 11:23 PM MDT (9/21) 2:04 PM MDT (9/21)
Length of Visible Light 13h 11m
Length of Day
12h 13m
Waning Gibbous, 54% of the Moon is Illuminated
Sep 21
Waning Gibbous
Sep 21
Last Quarter
Sep 28
New
Oct 5
First Quarter
Oct 13
Full

Hourly Weather History & Observations

Time (MDT) Temp. Windchill Dew Point Humidity Pressure Visibility Wind Dir Wind Speed Gust Speed Precip Events Conditions
12:15 AM 57.2 °F - 42.8 °F 59% 29.86 in 10.0 mi NNE 12.7 mph - N/A   Mostly Cloudy
12:35 AM 59.0 °F - 41.0 °F 51% 29.83 in 10.0 mi NNE 8.1 mph 19.6 mph N/A   Mostly Cloudy
12:55 AM 60.8 °F - 37.4 °F 42% 29.85 in 10.0 mi NW 3.5 mph - N/A   Scattered Clouds
1:15 AM 57.2 °F - 39.2 °F 51% 29.84 in 10.0 mi North 3.5 mph - N/A   Clear
1:35 AM 53.6 °F - 41.0 °F 62% 29.83 in 10.0 mi SE 4.6 mph - N/A   Clear
1:55 AM 50.0 °F - 42.8 °F 76% 29.84 in 10.0 mi Calm Calm - N/A   Clear
2:15 AM 50.0 °F - 48.2 °F 94% 29.87 in 10.0 mi NW 12.7 mph 19.6 mph N/A   Clear
2:35 AM 51.8 °F - 50.0 °F 94% 29.87 in 10.0 mi NNW 9.2 mph 18.4 mph N/A   Mostly Cloudy
2:55 AM 51.8 °F - 50.0 °F 94% 29.87 in 10.0 mi NNW 15.0 mph 20.7 mph N/A   Overcast
3:15 AM 51.8 °F - 48.2 °F 88% 29.87 in 10.0 mi NW 12.7 mph 19.6 mph N/A   Mostly Cloudy
3:35 AM 50.0 °F - 48.2 °F 94% 29.87 in 10.0 mi NW 10.4 mph 17.3 mph N/A   Overcast
3:55 AM 50.0 °F - 48.2 °F 94% 29.88 in 10.0 mi NW 8.1 mph - N/A   Scattered Clouds
4:15 AM 46.4 °F 43.5 °F 46.4 °F 100% 29.87 in 10.0 mi WNW 5.8 mph - N/A   Mostly Cloudy
4:35 AM 46.4 °F 42.9 °F 46.4 °F 100% 29.89 in 10.0 mi WNW 6.9 mph - N/A   Overcast
4:55 AM 50.0 °F - 46.4 °F 87% 29.90 in 10.0 mi West 4.6 mph - N/A   Overcast
5:15 AM 50.0 °F - 46.4 °F 87% 29.91 in 10.0 mi West 8.1 mph - N/A   Overcast
5:35 AM 50.0 °F - 46.4 °F 87% 29.91 in 10.0 mi WNW 9.2 mph - N/A   Overcast
5:55 AM 48.2 °F - 46.4 °F 93% 29.92 in 10.0 mi WNW 8.1 mph - N/A   Overcast
6:15 AM 48.2 °F - 46.4 °F 93% 29.93 in 10.0 mi West 4.6 mph - N/A   Overcast
6:35 AM 48.2 °F - 46.4 °F 93% 29.93 in 10.0 mi WSW 3.5 mph - N/A   Overcast
6:55 AM 48.2 °F - 46.4 °F 93% 29.94 in 10.0 mi WSW 3.5 mph - N/A   Overcast
7:15 AM 48.2 °F - 46.4 °F 93% 29.94 in 10.0 mi Calm Calm - N/A   Overcast
7:35 AM 50.0 °F - 46.4 °F 87% 29.94 in 10.0 mi Calm Calm - N/A   Overcast
7:55 AM 50.0 °F - 46.4 °F 87% 29.95 in 10.0 mi Calm Calm - N/A   Overcast
8:15 AM 50.0 °F - 46.4 °F 87% 29.95 in 10.0 mi ESE 4.6 mph - N/A   Mostly Cloudy
8:35 AM 50.0 °F - 46.4 °F 87% 29.95 in 10.0 mi South 5.8 mph - N/A   Overcast
9:15 AM 51.8 °F - 42.8 °F 71% 29.95 in 10.0 mi WSW 10.4 mph 17.3 mph N/A   Overcast
9:35 AM 51.8 °F - 41.0 °F 67% 29.95 in 10.0 mi West 15.0 mph 21.9 mph N/A   Overcast
9:55 AM 50.0 °F - 42.8 °F 76% 29.97 in 10.0 mi NW 18.4 mph 25.3 mph N/A   Overcast
10:15 AM 51.8 °F - 42.8 °F 71% 29.97 in 10.0 mi NNW 13.8 mph 21.9 mph N/A   Mostly Cloudy
10:35 AM 51.8 °F - 42.8 °F 71% 29.98 in 10.0 mi NW 18.4 mph 26.5 mph N/A   Overcast
10:55 AM 51.8 °F - 41.0 °F 67% 29.98 in 10.0 mi WNW 13.8 mph 26.5 mph N/A   Overcast
11:15 AM 55.4 °F - 41.0 °F 58% 29.99 in 10.0 mi NW 16.1 mph 26.5 mph N/A   Overcast
11:35 AM 53.6 °F - 39.2 °F 58% 29.99 in 10.0 mi NW 17.3 mph 27.6 mph N/A   Overcast
11:55 AM 53.6 °F - 37.4 °F 54% 30.00 in 10.0 mi NW 16.1 mph 29.9 mph N/A   Overcast
12:15 PM 55.4 °F - 37.4 °F 51% 30.00 in 10.0 mi WNW 19.6 mph 28.8 mph N/A   Mostly Cloudy
12:35 PM 55.4 °F - 37.4 °F 51% 29.99 in 10.0 mi West 20.7 mph 32.2 mph N/A   Mostly Cloudy
12:55 PM 55.4 °F - 35.6 °F 47% 30.00 in 10.0 mi NW 17.3 mph 32.2 mph N/A   Overcast
1:15 PM 55.4 °F - 35.6 °F 47% 30.00 in 10.0 mi NW 17.3 mph 31.1 mph N/A   Overcast
1:35 PM 55.4 °F - 35.6 °F 47% 30.00 in 10.0 mi NW 18.4 mph 32.2 mph N/A   Overcast
1:55 PM 55.4 °F - 37.4 °F 51% 30.00 in 10.0 mi NW 17.3 mph 29.9 mph N/A   Overcast
2:15 PM 55.4 °F - 35.6 °F 47% 30.01 in 10.0 mi NW 20.7 mph 32.2 mph N/A   Overcast
2:35 PM 55.4 °F - 37.4 °F 51% 30.02 in 10.0 mi WNW 23.0 mph 33.4 mph N/A   Overcast
2:55 PM 55.4 °F - 37.4 °F 51% 30.02 in 10.0 mi WNW 23.0 mph 33.4 mph N/A   Overcast
3:15 PM 55.4 °F - 37.4 °F 51% 30.03 in 10.0 mi NW 20.7 mph 28.8 mph N/A   Overcast
3:35 PM 53.6 °F - 41.0 °F 62% 30.04 in 10.0 mi NNW 20.7 mph 28.8 mph N/A   Overcast
3:55 PM 53.6 °F - 39.2 °F 58% 30.04 in 10.0 mi NW 18.4 mph 23.0 mph N/A   Overcast
4:15 PM 53.6 °F - 37.4 °F 54% 30.04 in 10.0 mi NW 17.3 mph 34.5 mph N/A   Overcast
4:35 PM 53.6 °F - 37.4 °F 54% 30.04 in 10.0 mi NW 15.0 mph 23.0 mph N/A   Overcast
4:55 PM 53.6 °F - 37.4 °F 54% 30.06 in 10.0 mi NW 15.0 mph 24.2 mph N/A   Overcast
5:15 PM 53.6 °F - 37.4 °F 54% 30.06 in 10.0 mi NW 15.0 mph 24.2 mph N/A   Overcast
5:35 PM 53.6 °F - 37.4 °F 54% 30.06 in 10.0 mi NW 12.7 mph 24.2 mph N/A   Overcast
5:55 PM 51.8 °F - 37.4 °F 58% 30.06 in 10.0 mi NW 9.2 mph 20.7 mph N/A   Overcast
6:15 PM 53.6 °F - 37.4 °F 54% 30.06 in 10.0 mi NW 10.4 mph 20.7 mph N/A   Mostly Cloudy
6:35 PM 51.8 °F - 37.4 °F 58% 30.06 in 10.0 mi NW 11.5 mph 18.4 mph N/A   Scattered Clouds
6:55 PM 50.0 °F - 37.4 °F 62% 30.06 in 10.0 mi NNW 12.7 mph 18.4 mph N/A   Clear
7:15 PM 48.2 °F - 37.4 °F 66% 30.05 in 10.0 mi North 12.7 mph - N/A   Clear
7:35 PM 46.4 °F 40.7 °F 37.4 °F 71% 30.06 in 10.0 mi North 12.7 mph - N/A   Clear
7:55 PM 46.4 °F 40.7 °F 37.4 °F 71% 30.06 in 10.0 mi North 12.7 mph - N/A   Clear
8:15 PM 46.4 °F 41.1 °F 37.4 °F 71% 30.06 in 10.0 mi North 11.5 mph - N/A   Clear
8:35 PM 46.4 °F 41.1 °F 37.4 °F 71% 30.04 in 10.0 mi North 11.5 mph - N/A   Clear
8:55 PM 46.4 °F 41.1 °F 37.4 °F 71% 30.04 in 10.0 mi North 11.5 mph - N/A   Clear
9:15 PM 46.4 °F 41.1 °F 37.4 °F 71% 30.05 in 10.0 mi North 11.5 mph - N/A   Clear
9:35 PM 44.6 °F 39.2 °F 37.4 °F 76% 30.06 in 10.0 mi North 10.4 mph - N/A   Clear
9:55 PM 44.6 °F 40.7 °F 37.4 °F 76% 30.06 in 10.0 mi North 6.9 mph - N/A   Clear
10:15 PM 44.6 °F - 37.4 °F 76% 30.07 in 10.0 mi Calm Calm - N/A   Clear
10:35 PM 42.8 °F 40.1 °F 37.4 °F 81% 30.07 in 10.0 mi East 4.6 mph - N/A   Clear
10:55 PM 42.8 °F 38.0 °F 37.4 °F 81% 30.09 in 10.0 mi SE 8.1 mph - N/A   Scattered Clouds
11:15 PM 42.8 °F - 41.0 °F 93% 30.09 in 10.0 mi Calm Calm - N/A   Overcast
11:35 PM 42.8 °F - 41.0 °F 93% 30.08 in 10.0 mi Calm Calm - N/A   Overcast
11:55 PM 41.0 °F - 39.2 °F 93% 30.08 in 10.0 mi Calm Calm - N/A   Scattered Clouds